{"data":{"norad_id":64507,"epoch":"2026-09-21T15:42:29.811744Z","epoch_age_seconds":81967,"freshness":"FRESH","line1":"1 64507U 25134H   26264.65451171 -.00000046  00000+0  22951-4 0  9990","line2":"2 64507  51.8989  68.9936 0000678 118.0968 242.0063 14.79930139 69333","mean_motion":14.79930139,"eccentricity":6.78e-5,"inclination_deg":51.8989,"raan_deg":68.9936,"arg_perigee_deg":118.0968,"mean_anomaly_deg":242.0063,"bstar":2.2951e-5,"rev_number":6933,"period_min":97.301890275241,"perigee_km":629.06953984099,"apogee_km":630.01978147418,"semimajor_km":7007.6816606576,"source":"CELESTRAK","updated_at":"2026-09-22T09:00:29.807665Z"}}